TimePST,TemperatureF,Dew PointF,Humidity,Sea Level PressureIn,VisibilityMPH,Wind Direction,Wind SpeedMPH,Gust SpeedMPH,PrecipitationIn,Events,Conditions,WindDirDegrees,DateUTC
12:18 AM,39.2,39.2,100,30.16,10.0,South,15.0,-,N/A,,Mostly Cloudy,180,2013-01-24 08:18:00
12:38 AM,39.2,39.2,100,30.16,10.0,South,11.5,-,N/A,,Scattered Clouds,190,2013-01-24 08:38:00
12:58 AM,38.3,37.9,99,30.19,10.0,South,8.1,-,N/A,,Clear,170,2013-01-24 08:58:00
1:58 AM,34.9,34.5,99,30.21,10.0,South,9.2,-,N/A,,Clear,180,2013-01-24 09:58:00
2:58 AM,34.3,34.0,99,30.22,10.0,South,8.1,-,N/A,,Partly Cloudy,170,2013-01-24 10:58:00
3:08 AM,35.6,33.8,93,30.20,10.0,South,8.1,-,N/A,,Mostly Cloudy,180,2013-01-24 11:08:00
3:38 AM,35.6,35.6,100,30.20,10.0,South,10.4,-,N/A,,Scattered Clouds,180,2013-01-24 11:38:00
3:58 AM,34.5,34.2,99,30.22,10.0,South,6.9,-,N/A,,Scattered Clouds,180,2013-01-24 11:58:00
4:58 AM,35.2,34.9,99,30.21,10.0,SSE,4.6,-,N/A,,Overcast,160,2013-01-24 12:58:00
5:58 AM,32.2,32.0,99,30.23,5.0,SSE,3.5,-,N/A,,Overcast,160,2013-01-24 13:58:00
6:58 AM,31.5,31.3,99,30.21,6.0,East,2.3,-,N/A,,Clear,100,2013-01-24 14:58:00
7:08 AM,32.0,32.0,100,30.19,2.5,ESE,2.3,-,N/A,,Clear,110,2013-01-24 15:08:00
7:13 AM,32.0,32.0,100,30.19,1.0,ESE,3.5,-,N/A,,Clear,110,2013-01-24 15:13:00
7:18 AM,32.0,30.2,93,30.19,0.8,ESE,3.5,-,N/A,,Clear,120,2013-01-24 15:18:00
7:23 AM,30.2,30.2,100,30.19,1.0,SE,2.3,-,N/A,,Clear,130,2013-01-24 15:23:00
7:28 AM,30.2,28.4,93,30.19,0.8,SSE,2.3,-,N/A,,Clear,150,2013-01-24 15:28:00
7:33 AM,30.2,28.4,93,30.19,0.2,SE,2.3,-,N/A,Fog,Light Freezing Fog,140,2013-01-24 15:33:00
7:38 AM,28.4,28.4,100,30.19,0.2,SE,3.5,-,N/A,Fog,Light Freezing Fog,140,2013-01-24 15:38:00
7:48 AM,28.4,28.4,100,30.19,0.5,SSE,1.2,-,N/A,Fog,Light Freezing Fog,160,2013-01-24 15:48:00
7:53 AM,30.2,30.2,100,30.19,1.0,SSW,1.2,-,N/A,,Clear,200,2013-01-24 15:53:00
7:58 AM,29.8,29.5,99,30.22,2.5,South,2.3,-,N/A,,Clear,180,2013-01-24 15:58:00
8:03 AM,28.4,28.4,100,30.20,3.0,SE,1.2,-,N/A,,Clear,140,2013-01-24 16:03:00
8:08 AM,28.4,28.4,100,30.19,0.8,East,2.3,-,N/A,,Clear,100,2013-01-24 16:08:00
8:13 AM,30.2,28.4,93,30.19,0.8,East,2.3,-,N/A,,Clear,100,2013-01-24 16:13:00
8:23 AM,30.2,30.2,100,30.19,0.8,ESE,3.5,-,N/A,,Clear,110,2013-01-24 16:23:00
8:28 AM,32.0,32.0,100,30.18,5.0,ESE,3.5,-,N/A,,Clear,120,2013-01-24 16:28:00
8:58 AM,32.9,32.7,99,30.21,10.0,Calm,Calm,-,N/A,,Clear,0,2013-01-24 16:58:00
9:58 AM,37.8,37.6,99,30.20,10.0,Variable,1.2,-,N/A,,Clear,0,2013-01-24 17:58:00
10:58 AM,41.0,37.4,87,30.19,10.0,Calm,Calm,-,N/A,,Clear,0,2013-01-24 18:58:00
11:58 AM,42.6,38.3,85,30.17,10.0,NW,3.5,-,N/A,,Overcast,310,2013-01-24 19:58:00
12:58 PM,44.4,37.4,76,30.14,10.0,ESE,2.3,-,N/A,,Clear,120,2013-01-24 20:58:00
1:58 PM,45.0,35.4,69,30.11,10.0,ENE,4.6,-,N/A,,Partly Cloudy,70,2013-01-24 21:58:00
2:58 PM,45.3,36.0,70,30.10,10.0,East,1.2,-,N/A,,Partly Cloudy,80,2013-01-24 22:58:00
3:58 PM,43.0,40.5,91,30.10,10.0,WNW,8.1,-,N/A,,Mostly Cloudy,290,2013-01-24 23:58:00
4:13 PM,42.8,41.0,93,30.08,10.0,WNW,4.6,-,N/A,Rain,Light Rain,290,2013-01-25 00:13:00
4:58 PM,41.0,40.8,99,30.11,6.0,WNW,8.1,-,0.03,Rain,Light Rain,300,2013-01-25 00:58:00
5:44 PM,41.0,41.0,100,30.09,6.0,SE,4.6,-,N/A,Rain,Rain,130,2013-01-25 01:44:00
5:58 PM,40.5,40.3,99,30.11,7.0,ESE,4.6,-,0.06,Rain,Light Rain,120,2013-01-25 01:58:00
6:18 PM,41.0,41.0,100,30.09,8.0,ESE,6.9,-,N/A,Rain,Light Rain,110,2013-01-25 02:18:00
6:23 PM,41.0,41.0,100,30.09,9.0,ESE,8.1,-,N/A,Rain,Light Rain,110,2013-01-25 02:23:00
6:58 PM,40.5,40.3,99,30.10,10.0,ESE,4.6,-,0.03,Rain,Light Rain,110,2013-01-25 02:58:00
7:58 PM,40.5,40.1,99,30.10,10.0,East,2.3,-,0.01,Rain,Light Rain,90,2013-01-25 03:58:00
8:29 PM,41.0,39.2,93,30.07,10.0,ESE,2.3,-,N/A,,Overcast,120,2013-01-25 04:29:00
8:35 PM,41.0,39.2,93,30.07,10.0,ESE,2.3,-,N/A,Rain,Light Rain,110,2013-01-25 04:35:00
8:58 PM,40.1,39.9,99,30.09,10.0,Calm,Calm,-,0.00,Rain,Light Rain,0,2013-01-25 04:58:00
9:05 PM,41.0,39.2,93,30.07,10.0,Calm,Calm,-,N/A,,Mostly Cloudy,0,2013-01-25 05:05:00
9:16 PM,41.0,39.2,93,30.07,10.0,SE,2.3,-,N/A,Rain,Light Rain,140,2013-01-25 05:16:00
9:58 PM,39.9,39.6,99,30.08,9.0,Calm,Calm,-,0.01,Rain,Light Rain,0,2013-01-25 05:58:00
10:03 PM,39.2,39.2,100,30.06,10.0,Calm,Calm,-,N/A,Rain,Light Rain,0,2013-01-25 06:03:00
10:07 PM,41.0,39.2,93,30.06,10.0,Calm,Calm,-,N/A,,Mostly Cloudy,0,2013-01-25 06:07:00
10:20 PM,41.0,39.2,93,30.06,10.0,Calm,Calm,-,N/A,Rain,Light Rain,0,2013-01-25 06:20:00
10:51 PM,41.0,39.2,93,30.05,7.0,East,2.3,-,N/A,,Overcast,100,2013-01-25 06:51:00
10:58 PM,40.3,40.1,99,30.07,7.0,East,2.3,-,0.01,,Overcast,100,2013-01-25 06:58:00
11:18 PM,41.0,41.0,100,30.05,10.0,Calm,Calm,-,N/A,,Overcast,0,2013-01-25 07:18:00
11:33 PM,39.2,39.2,100,30.05,6.0,Calm,Calm,-,N/A,,Overcast,0,2013-01-25 07:33:00
11:58 PM,39.9,39.9,100,30.08,10.0,Calm,Calm,-,N/A,,Overcast,0,2013-01-25 07:58:00